Location: Capannuccia
(43.7000°N, 11.3000°E)
Time: 22:49:19
(UTC+00:00)

STARLINK-2688 - Pass Details

Date: 30 July 2021
Orbit: 546 x 548 km, 53.1° (Epoch: 20 September)

Event Time Altitude Azimuth Distance (km) Brightness Sun altitude
Rises 20:19:59 0° 298° (WNW) 2,720 8.6 -15.4°
Reaches altitude 10° 20:22:24 10° 287° (WNW) 1,822 7.2 -15.7°
Maximum altitude 20:26:01 29° 227° (SW) 1,010 4.9 -16.2°
Enters shadow 20:27:47 21° 185° (S) 1,254 5.1 -16.4°
